Home > Weather > Riga > Past weeks

Flag for Latvia Weather for the Past 2 Weeks in Riga, Latvia

Now
39 °F

Mostly cloudy.


Feels Like: 31 °F
Forecast: 37 / 40 °F
Wind: 14 mph from South

Location: Riga Airport

Current Time: Feb 8, 2016 at 3:32:17 PM

Latest Report: Feb 8, 2016 at 2:50 PM


Visibility: N/A

Pressure: 29.59 "Hg

Humidity: 93%

Dew point: 37 °F

Location of RigaLocation

Historic Weather in Riga — Graph

°F

Riga Temperature Yesterday

Maximum temperature yesterday: 43 °F (at 2:20 PM)
Minimum temperature yesterday: 36 °F (at 12:20 AM)
Average temperature yesterday: 38 °F

High & Low Weather Summary for the Past Weeks

 TemperatureHumidityPressure
High46 °F (Jan 28, 6:20 AM)100% (Jan 24, 2:50 PM)30.18 "Hg (Jan 24, 2:50 PM)
Low19 °F (Jan 24, 2:20 PM)61% (Feb 5, 2:20 PM)29.09 "Hg (Feb 3, 8:20 AM)
Average37 °F90%29.62 "Hg
* Reported Jan 24 2:20 PM — Feb 8 2:20 PM, Riga, Weather by CustomWeather, © 2016

Note: Actual official high and low records may vary slightly from our data, if they occured in-between our weather recording intervals... More about our weather records

Advertising

Riga Weather History for the Previous 24 Hours

 ConditionsComfort  
Time TempWeatherWind HumidityBarometerVisibility
2:20 PM
Mon, Feb 8
39 °FMostly cloudy.13 mph93%29.59 "Hg6 mi
1:50 PM39 °FBroken clouds.12 mph93%29.59 "Hg6 mi
1:20 PM39 °FBroken clouds.10 mph87%29.59 "Hg6 mi
12:50 PM37 °FLow clouds.12 mph93%29.59 "Hg6 mi
12:20 PM37 °FOvercast.10 mph93%29.59 "Hg6 mi
11:50 AM36 °FLight rain. Overcast.13 mph100%29.59 "Hg6 mi
11:20 AM36 °FLight rain. Overcast.13 mph93%29.59 "Hg5 mi
10:50 AM36 °FLight rain. Overcast.13 mph93%29.59 "Hg6 mi
10:20 AM36 °FPartly sunny.15 mph93%29.59 "HgN/A
9:50 AM36 °FScattered clouds.17 mph87%29.59 "HgN/A
9:20 AM36 °FPassing clouds.15 mph87%29.59 "HgN/A
8:50 AM34 °FPassing clouds.16 mph93%29.59 "HgN/A
8:20 AM34 °FPassing clouds.14 mph93%29.59 "HgN/A
7:50 AM34 °FPassing clouds.16 mph93%29.59 "HgN/A
7:20 AM34 °FPassing clouds.15 mph93%29.59 "HgN/A
6:50 AM34 °FPassing clouds.16 mph93%29.59 "HgN/A
6:20 AM36 °FPassing clouds.16 mph87%29.59 "HgN/A
5:20 AM34 °FPassing clouds.14 mph93%29.62 "HgN/A
4:50 AM36 °FPassing clouds.14 mph87%29.62 "HgN/A
4:20 AM36 °FPassing clouds.15 mph87%29.62 "HgN/A
3:50 AM36 °FClear.15 mph87%29.62 "Hg10 mi
3:20 AM36 °FClear.16 mph87%29.65 "Hg10 mi
2:50 AM36 °FClear.15 mph87%29.65 "Hg10 mi
2:20 AM36 °FClear.15 mph87%29.65 "Hg10 mi
1:50 AM36 °FClear.15 mph87%29.68 "Hg10 mi
1:20 AM36 °FClear.16 mph87%29.68 "Hg10 mi
12:50 AM36 °FClear.17 mph87%29.68 "Hg10 mi
12:20 AM36 °FClear.16 mph87%29.71 "Hg10 mi
11:50 PM
Sun, Feb 7
36 °FClear.16 mph87%29.71 "Hg10 mi
11:20 PM37 °FClear.18 mph81%29.71 "Hg10 mi
10:50 PM37 °FClear.18 mph87%29.71 "Hg10 mi
10:20 PM37 °FClear.18 mph87%29.71 "Hg10 mi
9:50 PM37 °FClear.17 mph87%29.71 "Hg10 mi
9:20 PM37 °FClear.18 mph87%29.74 "Hg10 mi
8:50 PM39 °FClear.18 mph81%29.74 "Hg10 mi
8:20 PM39 °FClear.18 mph81%29.74 "Hg10 mi
7:50 PM39 °FClear.15 mph81%29.74 "Hg10 mi
7:20 PM39 °FClear.16 mph81%29.74 "Hg10 mi
6:50 PM39 °FClear.16 mph87%29.74 "Hg10 mi
6:20 PM39 °FClear.14 mph87%29.74 "Hg10 mi
5:20 PM39 °FClear.16 mph87%29.74 "Hg10 mi
4:50 PM41 °FSunny.15 mph81%29.74 "Hg10 mi
4:20 PM41 °FSunny.15 mph81%29.74 "Hg10 mi
3:50 PM41 °FClear.16 mph81%29.74 "Hg6 mi
3:20 PM41 °FSunny.17 mph87%29.77 "Hg10 mi
Weather by CustomWeather, © 2016

See weather overviewHow to use our weather pages